Погода в Плеханове

Россия / Пермский край     57°28′46″N   56°58′32″E
темп.,
°C
ветер,
м/с
пор.,
м/с
влажн.,
%
обл.,
%
осадки,
мм/ч
давл.,
гПа
погр.,
м
13 апреля, вт
вт1323:00+4всв22815 0.0 104112
02:00+3вюв11825 0.0 104110
05:00+2вюв11875 0.0 104110
08:00+4ююв22875 0.0 104190
11:00+9ююв236650 0.0 1040412
14:00+13ю344849 0.0 1038780
17:00+14юз4548100 0.0 1036840
20:00+11ююз3471100 0.0 103556
14 апреля, ср
ср1423:00+9юз3789100 0.0 1034117
02:00+8юз369191 0.0 103397
05:00+7юз3593100 0.0 103368
08:00+8юз369187 0.0 1032166
11:00+13юз467388 0.0 1031486
14:00+17зюз565760 0.0 10301161
17:00+18зюз57527 0.0 10281334
20:00+14юз35696 0.0 102877
15 апреля, чт
чт1523:00+11юз358194 0.0 102766
02:00+9юз348664 0.0 102650
05:00+8ююз358894 0.0 102667
08:00+9ююз497659 0.0 1025235
11:00+14юз68495 0.0 1023656
14:00+17юз68365 0.0 10211231
17:00+17зюз683167 0.0 10201396
20:00+13юз35500 0.0 101971
16 апреля, пт
пт1623:00+10юз366114 0.0 101882
02:00+9зюз346825 0.0 101762
05:00+8сз338560 0.3 101756
08:00+6с4784100 0.3 1017304
11:00+5ссз4790100 1.4 1018313
14:00+6ссв4590100 2.9 1018508
17:00+2св5896100 4.4 1019473
20:00+2св688899 0.1 1020704
17 апреля, сб
сб1723:000св588793 0.1 1020480
02:00−1ссв37915 0.0 1020261
05:00−2ссв3786100 0.0 1020281
08:00−1св466478 0.0 1020566
11:00+2св6844100 0.0 10201825
14:00+4ссв6934100 0.0 10202491
17:00+4ссв7932100 0.0 10212525
20:00+2ссв4847100 0.1 1022262